Davenport, IA

3:41 AM CDT on June 27, 2017 (GMT -0500)
Davenport Municipal

Weather History for KDVN - January, 2014

Change the Weather History Date:

Friday, January 17, 2014

  Actual Average Record
Temperature  
Mean Temperature 11 °F 21 °F  
Max Temperature 16 °F 30 °F 55 °F (1973)
Min Temperature 6 °F 12 °F -14 °F (1982)
Degree Days  
Heating Degree Days 54 44  
Month to date heating degree days 840 747  
Since 1 July heating degree days 3672 3327  
Cooling Degree Days 0 0  
Month to date cooling degree days 0 0  
Year to date cooling degree days 0 0  
Moisture  
Dew Point 5 °F    
Average Humidity 75    
Maximum Humidity 83    
Minimum Humidity 67    
Precipitation  
Precipitation T in 0.04 in 0.49 in (1980)
Month to date precipitation 0.44 0.41  
Year to date precipitation 0.44 0.41  
Snow  
Snow T in - - ()
Month to date snowfall 5.0  
Since 1 July snowfall 22.2  
Snow Depth T in    
Sea Level Pressure  
Sea Level Pressure 29.97 in    
Wind  
Wind Speed 15 mph (WNW)    
Max Wind Speed 25 mph    
Max Gust Speed 30 mph    
Visibility 7 miles    
Events Snow    
T = Trace of Precipitation, MM = Missing Value Source: NWS Daily Summary

Daily Weather History Graph

Daily Weather History Graph

Search for Another Location

Airport or City:

Trip Planner

Search our weather history database for the weather conditions in past years. The results will help you decide how hot, cold, wet, or windy it might be!

Date:

Astronomy

Jan. 17, 2014 Rise Set
Actual Time 7:25 AM CST 4:59 PM CST
Civil Twilight 6:55 AM CST 5:30 PM CST
Nautical Twilight 6:21 AM CST 6:04 PM CST
Astronomical Twilight 5:48 AM CST 6:37 PM CST
Moon 6:48 PM CST (1/17) 7:52 AM CST (1/17)
Length of Visible Light 10h 34m
Length of Day
9h 33m
Full, 98% of the Moon is Illuminated
Jan 17
Full
Jan 23
Last Quarter
Jan 30
New
Feb 6
First Quarter
Feb 14
Full

Hourly Weather History & Observations

Time (CST) Temp. Windchill Dew Point Humidity Pressure Visibility Wind Dir Wind Speed Gust Speed Precip Events Conditions
12:35 AM 8.6 °F -10.5 °F 1.4 °F 73% 29.82 in 10.0 mi NW 19.6 mph 27.6 mph 0.00 in   Overcast
12:52 AM 9.0 °F -11.8 °F 1.9 °F 73% 29.86 in 10.0 mi WNW 24.2 mph 29.9 mph 0.00 in   Overcast
1:52 AM 8.1 °F -12.2 °F 1.0 °F 73% 29.88 in 10.0 mi WNW 21.9 mph 28.8 mph N/A   Overcast
2:52 AM 8.1 °F -11.7 °F 1.0 °F 73% 29.89 in 10.0 mi WNW 20.7 mph 25.3 mph N/A   Overcast
3:52 AM 7.0 °F -12.1 °F -0.0 °F 73% 29.90 in 10.0 mi WNW 18.4 mph - N/A   Overcast
4:52 AM 7.0 °F -12.1 °F -0.0 °F 73% 29.91 in 10.0 mi WNW 18.4 mph 25.3 mph N/A   Mostly Cloudy
5:52 AM 7.0 °F -12.1 °F 1.0 °F 77% 29.92 in 10.0 mi WNW 18.4 mph - N/A   Overcast
7:52 AM 10.0 °F -8.1 °F 3.0 °F 73% 29.95 in 9.0 mi WNW 18.4 mph - N/A   Overcast
8:52 AM 10.9 °F -7.5 °F 3.0 °F 70% 29.97 in 10.0 mi WNW 19.6 mph - N/A   Overcast
9:52 AM 10.9 °F -7.0 °F 3.9 °F 73% 29.99 in 2.5 mi WNW 18.4 mph 26.5 mph 0.00 in Snow Light Snow
9:59 AM 10.4 °F -7.2 °F 5.0 °F 79% 29.94 in 3.0 mi WNW 17.3 mph - 0.00 in Snow Light Snow
10:52 AM 12.0 °F -6.0 °F 5.0 °F 73% 30.00 in 3.0 mi WNW 19.6 mph - 0.00 in Snow Light Snow
11:12 AM 12.2 °F -5.8 °F 5.0 °F 73% 29.95 in 2.5 mi WNW 19.6 mph - 0.00 in Snow Light Snow
11:20 AM 12.2 °F -6.7 °F 5.0 °F 73% 29.95 in 3.0 mi WNW 21.9 mph 28.8 mph 0.00 in Snow Light Snow
11:52 AM 12.0 °F -6.9 °F 6.1 °F 77% 30.00 in 2.5 mi WNW 21.9 mph 25.3 mph 0.00 in Snow Light Snow
12:15 PM 12.2 °F -5.8 °F 6.8 °F 79% 29.95 in 3.0 mi WNW 19.6 mph 26.5 mph 0.00 in Snow Light Snow
12:29 PM 12.2 °F -5.3 °F 6.8 °F 79% 29.94 in 2.0 mi WNW 18.4 mph - 0.00 in Snow Light Snow
12:52 PM 12.9 °F -4.9 °F 7.0 °F 77% 29.99 in 3.0 mi WNW 19.6 mph - 0.00 in Snow Light Snow
1:17 PM 14.0 °F -4.7 °F 6.8 °F 73% 29.94 in 2.5 mi WNW 23.0 mph 27.6 mph 0.00 in Snow Light Snow
1:27 PM 14.0 °F -3.9 °F 6.8 °F 73% 29.95 in 3.0 mi WNW 20.7 mph - 0.00 in Snow Light Snow
1:52 PM 14.0 °F -2.5 °F 7.0 °F 74% 30.00 in 5.0 mi WNW 17.3 mph - 0.00 in Snow Light Snow
2:21 PM 15.8 °F -1.5 °F 6.8 °F 68% 29.96 in 9.0 mi WNW 20.7 mph 26.5 mph 0.00 in Snow Light Snow
2:52 PM 15.1 °F -1.1 °F 7.0 °F 70% 30.01 in 9.0 mi WNW 17.3 mph - 0.00 in   Overcast
3:52 PM 15.1 °F -0.6 °F 7.0 °F 70% 30.04 in 10.0 mi WNW 16.1 mph - N/A   Partly Cloudy
4:52 PM 14.0 °F -1.4 °F 6.1 °F 71% 30.04 in 10.0 mi WNW 15.0 mph - N/A   Clear
5:52 PM 12.9 °F 0.7 °F 6.1 °F 74% 30.06 in 10.0 mi WNW 9.2 mph - N/A   Clear
6:52 PM 12.0 °F 1.5 °F 6.1 °F 77% 30.07 in 10.0 mi WNW 6.9 mph - N/A   Clear
7:52 PM 10.9 °F -0.8 °F 6.1 °F 81% 30.06 in 10.0 mi WNW 8.1 mph - N/A   Clear
8:52 PM 10.9 °F -0.8 °F 6.1 °F 81% 30.06 in 10.0 mi NW 8.1 mph - N/A   Clear
9:52 PM 10.0 °F - 5.0 °F 80% 30.04 in 10.0 mi Calm Calm - N/A   Clear
10:52 PM 8.1 °F 1.4 °F 3.0 °F 80% 30.04 in 10.0 mi SSW 3.5 mph - N/A   Clear
11:52 PM 8.1 °F - 3.0 °F 80% 30.02 in 10.0 mi Calm Calm - N/A   Clear